Dewpoint
31 31 32 32 32 32 32 33 33 34 33 33 33 33 34 34 34 34 34 34 34 34 34 34 34 34 34 33 33 33 33 33 32 33 33 33 34 34 34 34 34 34 34 34 34 34 35 36 38 38 38 39 39 38 38 38 38 37 37 38 39 39 39 39 38 38 38 38 38
30 31 31 31 31 31 31 32 32 32 32 32 32 32 32 33 33 33 33 33 33 33 33 33 34 34 33 32 32 32 32 32 32 32 32 32 34 34 34 34 34 34 35 35 34 34 34 35 37 37 37 37 37 37 36 36 36 35 35 36 37 38 38 37 37 36 36 36 36
31 31 31 31 30 30 30 30 31 31 31 31 31 31 31 31 31 31 31 32 32 33 33 32 34 34 33 32 32 32 31 31 31 31 32 32 32 32 32 33 33 34 34 34 35 34 34 35 35 36 36 36 36 35 34 34 34 34 34 35 36 36 36 35 35 35 35 34 34
31 31 30 30 30 30 30 30 30 30 30 30 31 31 31 31 30 30 31 31 32 32 32 32 34 34 34 32 32 31 31 32 31 31 31 32 32 31 32 32 32 32 33 34 34 35 35 34 34 34 34 35 35 34 34 34 34 34 34 34 34 35 34 34 34 34 34 34 34
31 30 30 30 29 29 30 30 30 29 29 30 30 30 30 30 30 30 31 31 31 31 31 32 34 34 34 32 31 31 31 31 32 32 31 32 31 31 31 31 31 32 33 33 34 34 35 34 34 34 34 34 34 34 33 34 34 34 34 34 34 34 34 34 34 34 34 34 34
30 30 30 30 30 30 29 30 30 30 30 30 30 29 29 29 29 29 29 30 30 30 31 32 33 33 32 31 31 30 30 31 31 32 32 32 32 31 31 31 32 33 33 33 33 34 34 34 33 33 33 33 33 33 33 33 34 34 34 34 34 34 34 34 34 34 34 34 34
30 31 31 31 31 30 30 30 30 30 30 30 30 29 29 30 30 29 30 30 30 30 31 32 32 32 31 31 31 31 31 31 31 32 32 32 31 31 32 32 33 33 33 33 33 33 33 34 33 32 32 33 33 33 34 34 34 34 34 33 33 33 34 34 34 34 34 34 34
31 31 31 31 31 31 30 30 30 29 29 29 29 29 29 30 30 30 29 29 29 30 31 32 31 31 31 32 32 32 32 32 31 32 32 32 31 32 33 33 33 33 33 33 32 32 32 32 32 32 32 32 32 32 33 34 34 34 34 34 33 33 34 34 35 34 34 34 34
31 31 31 31 31 30 30 30 30 29 29 29 29 29 29 29 30 30 29 29 30 31 31 31 31 31 31 31 32 32 33 33 33 33 33 33 33 33 33 33 33 33 33 33 33 32 32 31 31 31 32 32 32 33 34 34 35 35 34 34 34 34 34 34 34 34 34 34 35
30 30 30 30 29 29 30 29 29 29 29 29 29 29 29 29 29 29 29 29 31 31 31 31 31 31 32 32 32 32 33 33 33 33 34 34 34 34 33 33 32 32 32 32 32 32 31 31 31 32 32 32 32 33 34 34 34 34 34 33 34 34 35 34 34 34 34 34 35
29 30 30 30 29 29 29 28 29 29 29 28 29 29 29 29 28 29 29 31 30 30 30 31 31 31 32 32 32 33 33 33 33 33 33 33 33 33 33 33 32 32 32 32 32 32 32 31 32 32 32 32 33 33 34 34 34 34 34 34 35 35 35 34 35 34 34 34 35
29 29 30 30 30 29 29 28 29 29 29 29 29 29 29 28 28 29 29 30 29 29 30 31 31 31 32 32 32 33 33 33 33 33 33 33 33 33 33 33 32 32 32 32 32 32 32 32 32 32 32 32 33 34 34 34 34 34 34 34 35 35 35 36 35 35 35 34 35
29 29 30 30 30 29 29 28 29 29 29 29 29 29 29 29 29 29 29 29 29 29 30 31 31 31 32 32 32 33 33 33 33 33 33 33 33 33 32 32 32 32 32 32 32 32 32 32 32 32 32 32 33 33 34 34 34 34 34 34 35 35 35 36 36 35 35 34 35
29 29 29 29 29 29 29 29 29 29 29 29 29 29 29 29 29 29 29 29 29 30 30 30 31 31 31 32 32 33 33 33 33 33 33 33 33 32 32 32 31 31 31 32 32 32 31 31 32 32 32 32 33 33 34 34 34 34 34 34 35 35 35 36 36 35 35 34 34
29 30 30 29 29 29 29 29 29 28 27 27 28 29 29 29 29 29 29 29 29 30 30 30 30 31 31 32 32 32 33 33 33 33 32 32 32 32 32 32 31 31 31 32 31 31 31 31 32 32 32 33 33 33 34 34 34 34 35 35 35 35 35 36 35 35 35 34 34
29 29 29 29 29 28 28 28 28 28 27 26 28 29 29 29 29 29 29 29 29 29 30 30 30 31 31 31 32 32 32 32 32 32 32 32 32 31 31 31 31 31 31 31 31 31 31 31 32 32 32 33 33 34 34 34 35 35 35 35 35 36 36 35 35 35 35 34 34
29 29 29 29 28 28 28 28 28 28 27 27 28 29 29 29 29 29 30 30 29 30 30 30 30 30 30 30 31 31 32 32 32 31 31 31 31 31 31 31 30 30 31 31 31 31 31 31 32 32 33 33 33 34 34 34 35 35 35 36 36 36 36 35 35 35 34 34 34
29 29 29 29 28 28 28 28 29 29 29 28 29 29 29 29 29 29 30 30 30 30 30 30 31 31 30 30 31 31 31 31 31 31 31 31 31 31 31 30 30 30 31 31 31 31 31 31 32 33 33 33 34 34 35 35 35 36 36 36 36 36 35 35 35 35 35 35 35
29 29 28 28 28 28 28 29 29 29 29 29 29 29 29 29 29 30 30 30 30 30 30 30 30 30 30 30 30 30 31 31 31 31 31 31 31 31 30 30 30 30 31 31 31 31 31 32 32 33 33 34 34 34 35 35 36 36 36 36 35 35 35 35 35 35 35 35 35
28 28 28 28 28 28 28 29 29 29 29 29 29 29 29 29 30 30 30 30 29 29 29 29 29 29 30 30 30 30 30 30 30 31 31 31 31 31 30 30 30 30 31 31 31 31 31 32 32 33 34 34 34 34 35 35 36 36 36 36 35 35 35 35 35 35 35 35 35
28 28 28 28 28 28 28 29 29 29 29 29 29 29 29 29 29 30 29 29 29 29 29 29 29 29 29 29 30 30 30 30 30 31 31 31 31 30 30 30 30 31 31 31 31 31 31 32 32 33 34 34 34 35 35 35 35 35 35 35 35 35 35 35 35 35 35 34 34
28 28 28 28 28 28 29 29 29 29 29 29 29 29 29 29 29 29 29 28 28 28 28 27 28 28 29 29 29 29 30 30 30 31 31 31 30 30 30 31 31 31 31 31 31 31 32 32 33 34 34 34 35 35 36 36 35 34 34 34 34 34 35 35 34 34 34 34 33
28 28 28 28 28 28 28 29 29 29 29 29 29 29 29 29 29 29 28 28 28 28 27 27 28 28 29 29 29 29 30 30 30 31 31 31 30 30 30 30 31 30 30 31 31 31 31 32 33 34 34 35 35 35 36 35 35 34 34 33 34 34 34 34 34 34 33 33 33
28 28 28 29 28 28 28 28 28 29 29 29 29 29 29 29 29 29 29 28 28 28 28 29 29 29 29 29 29 29 30 30 30 30 30 30 30 30 30 30 30 29 29 30 30 31 31 32 33 34 34 35 36 36 35 35 34 34 34 34 34 34 33 33 33 33 32 32 32
28 28 28 28 28 28 28 28 28 28 29 29 29 29 29 29 29 29 29 29 29 28 29 29 29 29 29 29 30 30 30 30 30 30 30 30 30 30 30 30 29 29 30 30 30 30 31 32 33 34 34 35 35 35 35 35 34 34 35 34 34 33 32 31 31 31 31 31 32
28 28 27 27 28 28 28 28 28 28 28 28 28 28 29 29 29 29 29 29 28 28 29 29 29 29 29 29 29 29 29 29 29 29 29 29 29 29 29 29 30 31 31 30 29 30 31 32 33 34 34 35 35 35 34 34 35 35 35 34 33 32 31 30 29 30 30 31 31
28 27 27 28 27 27 27 28 28 28 28 28 28 28 28 28 29 29 28 28 28 28 29 29 29 29 29 29 29 29 29 28 28 29 29 29 29 29 28 27 29 30 31 29 29 30 31 32 33 34 34 34 34 34 34 34 35 34 34 33 31 30 30 29 28 28 29 30 31
27 27 27 27 27 27 27 27 27 28 28 28 28 28 28 28 28 28 28 28 28 28 28 29 29 28 27 25 27 28 28 28 27 28 29 29 29 28 27 26 28 29 29 28 29 30 31 32 33 33 34 34 34 35 35 35 34 33 32 30 29 29 28 27 27 27 28 28 29
27 27 27 27 27 27 27 27 27 28 28 28 27 27 27 27 27 28 28 28 28 27 26 26 26 26 25 25 25 26 27 26 28 28 28 29 29 28 26 25 25 26 26 28 29 30 31 31 32 32 32 33 34 34 34 34 34 31 29 29 28 27 26 26 27 27 27 27 27
27 27 27 27 27 28 28 28 27 27 27 27 27 27 27 27 27 28 28 29 28 26 25 25 24 24 25 25 25 25 25 25 26 27 28 29 28 27 26 25 25 26 27 28 29 30 30 31 31 31 31 32 34 35 35 34 32 29 28 27 26 26 26 26 26 26 26 26 26
27 27 27 27 27 28 28 28 27 27 27 27 27 27 27 27 27 27 27 26 25 25 24 24 24 24 24 23 23 23 23 24 25 26 27 28 27 26 25 24 25 26 27 28 29 29 30 30 30 31 31 31 33 34 34 33 31 29 28 27 26 26 27 27 27 27 27 26 26
27 27 27 27 27 27 27 27 27 27 27 27 27 27 27 27 26 25 24 23 23 23 23 22 23 24 23 22 21 21 22 24 25 26 26 26 26 25 25 25 26 26 27 28 29 29 29 29 30 30 31 31 33 34 34 32 30 29 28 28 28 28 28 29 29 27 26 26 26
27 27 27 27 27 27 27 27 27 27 26 26 27 27 27 27 25 25 24 24 23 23 23 22 23 23 22 21 21 21 23 25 26 26 25 25 25 24 24 24 26 26 27 28 28 29 29 29 29 30 31 31 33 33 32 30 30 29 28 28 28 28 28 28 28 27 27 28 28
27 27 27 27 27 27 27 27 27 26 26 26 26 27 27 26 25 25 25 24 23 22 22 21 22 22 21 21 21 23 25 26 26 26 26 25 24 24 24 25 28 28 27 27 28 28 29 29 29 30 31 32 33 32 30 29 29 29 28 28 28 28 29 29 29 29 29 29 29
27 27 26 26 27 27 27 26 26 26 26 26 27 26 26 25 25 24 23 22 22 22 22 21 21 21 22 22 23 24 25 27 28 28 27 26 25 25 24 24 25 25 25 26 27 28 28 29 29 30 31 32 32 31 29 28 28 28 28 28 28 29 29 30 30 30 30 30 29
27 26 26 26 27 27 26 26 26 26 26 27 27 26 25 23 23 22 21 21 21 21 21 21 21 21 21 22 24 25 25 26 27 28 28 28 26 25 24 23 23 24 25 26 27 27 28 29 29 30 30 31 31 30 29 29 29 29 28 28 27 27 28 29 30 30 30 30 30
25 25 25 25 26 26 26 26 26 26 26 27 26 26 25 23 22 22 21 21 21 21 21 20 20 20 21 22 24 25 24 24 26 27 28 28 28 26 25 23 23 24 25 26 26 27 28 28 29 29 30 30 30 30 29 29 29 29 28 27 27 26 27 29 29 29 30 30 30
22 22 22 23 23 24 25 25 25 26 26 27 25 25 24 23 23 22 21 21 21 21 21 20 20 20 21 23 24 25 25 25 25 26 27 28 28 27 25 23 24 25 25 25 26 26 27 28 29 29 30 29 29 29 29 29 29 29 28 27 26 26 27 28 28 28 29 29 29
22 22 22 22 22 22 23 23 23 24 25 25 25 24 23 21 21 21 21 22 21 21 20 20 20 21 22 23 24 25 25 25 25 26 27 28 28 27 25 24 25 25 25 25 25 26 27 28 29 29 30 30 30 30 30 29 29 28 27 27 26 26 26 27 27 27 27 28 28
23 23 22 22 22 22 22 22 22 22 22 22 22 23 22 21 21 21 21 22 21 20 20 20 20 21 21 22 22 24 25 25 25 25 27 27 27 27 26 25 25 25 25 25 25 26 27 28 29 29 29 30 30 30 30 29 29 28 27 26 26 26 26 26 26 26 26 27 27
23 23 22 22 22 22 22 22 21 21 21 21 21 21 21 21 21 21 20 20 20 20 20 20 20 20 20 21 21 23 24 25 23 24 26 27 27 27 26 26 25 24 24 24 25 26 27 28 29 29 29 30 30 31 30 29 29 28 27 26 26 27 26 26 26 26 26 26 26